Temperature
17 17 17 17 17 17 17 17 17 17 17 18 18 17 17 17 17 17 17 18 18 18 18 18 18 18 18 18 18 18 18 18 18 18 18 18 18 18 18 18 18 17 18
17 17 17 17 17 17 17 17 17 17 17 17 17 17 17 17 17 17 17 17 17 17 17 17 17 17 18 18 18 18 18 18 18 18 18 18 18 18 18 18 18 17 18
17 17 17 17 17 17 17 17 17 17 17 17 17 17 17 17 17 17 17 17 17 17 17 17 17 17 17 18 18 18 18 18 18 18 18 17 17 17 18 18 18 17 18
17 16 16 17 17 17 17 17 17 17 17 17 17 17 17 17 17 17 17 17 17 17 17 17 17 17 17 17 18 18 18 18 18 17 17 17 17 17 17 17 17 17 17
16 16 16 17 17 17 17 17 17 17 17 17 17 17 17 17 17 17 17 17 17 17 17 17 17 17 17 17 17 17 17 17 17 17 17 17 17 17 17 17 17 17 17
16 16 16 17 17 17 17 17 17 17 17 17 17 17 17 17 17 17 17 17 17 17 17 17 17 17 17 17 17 17 17 17 17 16 16 16 16 17 17 17 17 17 17
16 16 16 17 17 17 17 17 17 17 17 17 17 17 17 17 17 17 17 17 16 17 17 17 17 17 17 17 17 17 17 17 16 16 16 16 16 17 17 17 17 17 17
16 16 16 17 17 17 16 16 16 16 16 16 16 16 17 17 17 16 16 16 16 17 17 16 17 17 17 17 17 17 17 16 16 16 16 16 16 17 17 17 17 17 17
16 16 16 16 16 16 16 16 16 16 16 16 16 16 16 16 16 16 16 16 16 16 16 16 16 16 16 16 16 16 17 16 16 16 16 16 16 16 16 17 16 16 16
16 16 16 16 16 16 16 16 16 16 16 16 16 16 16 16 16 16 16 16 16 16 16 16 16 16 16 16 16 16 16 16 16 16 16 16 16 16 16 16 16 16 16
16 16 16 16 16 16 16 16 16 16 16 16 16 16 16 15 15 15 16 16 16 16 16 16 16 16 16 16 16 16 16 16 16 16 15 16 16 16 16 16 16 16 16
16 16 16 16 16 16 16 16 16 16 15 15 15 15 15 15 15 15 16 16 16 16 16 16 16 16 16 15 16 16 16 16 15 15 15 16 16 16 16 16 16 16 16
16 16 16 16 16 16 16 16 16 15 15 15 15 15 15 15 15 15 15 15 15 15 15 15 15 15 15 15 15 15 15 15 15 15 15 15 15 15 15 15 15 15 16
16 16 16 16 16 16 16 15 15 15 15 15 15 15 15 15 15 15 15 15 15 15 15 15 15 15 15 15 15 15 15 15 15 15 15 15 15 15 15 15 15 15 15
16 16 16 16 15 15 15 15 15 15 15 15 15 15 15 15 15 15 15 15 15 15 15 15 15 15 15 15 15 15 15 15 15 15 15 15 15 15 15 15 15 15 15
16 16 16 15 15 15 15 15 15 15 15 15 15 15 15 15 15 15 15 15 15 15 15 15 15 14 14 14 14 14 14 14 14 14 14 14 14 15 15 14 14 14 14
16 16 15 15 15 15 15 15 15 15 15 15 14 14 14 14 15 14 14 15 15 15 14 14 14 14 14 14 14 14 14 14 14 14 14 14 14 14 14 14 14 14 14
16 16 15 15 15 15 15 15 15 15 14 14 14 14 14 14 14 14 14 14 14 14 14 14 14 14 14 14 14 14 14 14 14 14 14 14 14 14 14 14 14 14 14
16 16 16 15 15 15 15 15 15 15 14 14 14 14 14 14 14 14 14 14 14 14 14 14 14 14 14 14 14 14 14 14 14 14 14 14 14 13 13 14 14 14 14
16 16 15 15 15 15 14 14 14 14 14 14 14 14 14 14 14 14 14 14 14 14 14 14 14 14 14 14 14 14 13 13 13 13 13 13 13 13 13 13 13 13 13
15 15 15 15 15 15 14 14 14 14 14 14 14 14 14 14 14 14 14 14 14 14 13 13 13 13 13 13 13 13 13 13 13 13 13 13 13 13 13 13 12 13 13
15 15 15 15 14 14 14 14 14 14 14 14 14 14 13 13 13 13 13 13 13 13 13 13 13 13 13 13 13 13 14 13 13 13 13 12 12 12 12 12 12 12 12
15 15 15 15 14 14 14 14 14 14 13 13 13 13 13 13 13 13 13 13 13 13 13 13 13 13 12 12 13 13 14 14 13 13 12 12 12 12 12 12 11 11 11
15 15 14 14 14 14 14 14 14 13 13 13 13 13 13 13 13 13 13 12 12 12 12 12 12 12 12 12 12 12 12 12 13 13 12 12 12 11 11 11 11 11 11
15 14 14 14 14 14 14 13 13 13 13 13 13 13 12 12 12 12 12 12 12 12 12 12 12 12 12 12 12 12 12 12 12 12 12 12 11 11 11 11 11 11 11
14 14 14 14 14 13 13 13 13 13 13 13 12 12 12 12 12 12 12 11 11 11 11 12 11 11 11 11 11 11 11 11 11 11 12 11 11 11 11 10 10 10 10
Wind_Speed
2 3 4 4 4 5 6 6 6 7 7 8 7 7 7 7 8 8 8 8 8 8 7 7 7 6 5 5 5 6 6 6 6 6 6 5 5 5 5 3 2 3 6
3 4 5 4 5 6 6 7 7 7 7 7 8 7 7 8 8 8 8 8 8 8 7 7 7 6 5 5 4 4 5 5 6 5 5 6 6 5 5 4 3 5 5
4 4 5 5 5 6 7 7 7 7 8 8 8 8 8 8 8 8 8 8 8 8 8 8 7 6 5 4 3 3 5 6 6 5 4 4 6 6 5 5 4 5 5
4 4 6 6 6 6 7 8 8 8 8 8 8 8 9 8 9 9 9 9 9 9 8 8 8 7 7 5 4 4 6 7 6 3 3 4 5 8 5 5 5 5 5
5 5 7 6 6 7 7 7 8 8 8 8 8 9 9 9 9 10 9 10 10 9 9 9 9 9 8 8 7 7 8 8 6 3 5 5 5 7 6 6 5 5 5
5 5 7 6 7 7 7 7 8 8 9 9 9 9 10 10 10 10 10 10 10 10 10 9 10 10 9 9 10 11 10 8 5 6 5 5 6 8 7 6 6 5 5
5 5 7 7 7 7 7 8 8 8 9 9 9 10 10 10 10 10 10 10 10 10 10 10 10 10 10 10 10 11 10 6 5 6 6 6 8 8 7 6 6 6 6
5 5 7 7 7 8 9 8 8 9 9 10 10 10 10 10 10 10 10 10 10 10 10 11 10 10 10 10 10 10 9 4 6 6 6 7 9 8 7 7 6 6 5
5 5 6 6 8 9 9 10 9 9 10 11 10 10 10 10 10 10 11 11 10 10 10 10 10 10 10 9 9 9 8 6 5 6 6 8 9 8 8 7 6 5 5
5 5 5 6 7 8 9 11 11 11 11 11 11 10 9 9 9 9 10 11 10 10 10 10 10 10 9 9 8 8 5 2 6 6 7 9 9 8 8 7 7 6 5
5 4 4 6 6 7 8 9 9 10 10 8 9 9 6 7 8 8 12 11 11 11 10 10 10 9 7 8 8 5 3 4 7 7 8 10 9 8 8 8 8 7 7
5 4 4 5 5 6 6 6 6 7 7 7 7 7 6 7 8 8 10 10 10 9 9 9 7 5 3 5 6 3 4 5 6 7 9 11 10 9 9 9 9 9 8
5 5 4 5 5 5 5 5 5 5 5 6 7 7 6 6 6 6 6 6 7 6 7 6 4 4 4 5 4 5 5 5 5 6 10 11 11 10 11 11 11 11 10
5 5 4 4 4 5 5 5 4 4 4 5 5 6 5 4 4 5 4 5 5 5 5 5 4 5 5 5 5 5 5 5 5 6 9 11 11 11 11 12 12 12 11
5 5 4 4 4 4 5 4 4 4 4 5 5 5 5 4 4 4 4 4 5 4 4 4 3 4 4 5 5 5 5 6 6 6 8 11 11 12 12 12 11 11 11
4 5 5 4 4 4 4 4 4 4 4 4 4 4 4 4 4 4 4 4 4 4 4 3 4 3 3 4 4 5 5 5 6 6 7 8 11 12 13 12 12 11 11
4 5 5 4 4 4 4 4 4 3 3 3 3 3 4 4 4 4 3 3 3 3 3 3 3 3 3 3 4 4 5 5 6 6 7 6 7 10 11 12 12 12 12
4 5 5 4 4 4 3 3 3 3 3 3 3 3 4 3 3 3 3 3 3 3 3 3 3 2 3 2 2 3 4 4 5 6 6 6 6 6 9 11 11 12 12
3 4 5 4 4 4 4 3 3 4 3 3 3 3 3 4 4 3 3 3 3 3 3 3 3 2 3 3 2 2 3 4 4 4 5 6 6 6 6 9 10 11 12
4 4 4 4 4 4 4 3 3 3 3 3 3 3 4 3 4 3 3 3 3 2 2 3 3 2 2 2 1 2 2 3 3 4 4 5 6 6 6 6 6 8 10
4 4 4 4 4 4 3 3 2 2 2 2 3 4 4 4 4 3 2 3 2 3 3 3 2 2 2 1 1 1 2 2 3 3 3 3 5 5 5 6 6 6 6
4 4 4 4 4 4 3 2 2 2 2 2 2 3 4 4 4 3 2 2 2 2 2 3 2 1 1 1 1 1 1 2 2 2 2 3 3 4 4 5 5 6 6
4 4 3 4 4 3 4 3 3 3 2 2 2 2 3 3 4 3 3 2 2 2 1 2 2 1 0 0 1 2 1 1 0 1 2 2 3 3 3 4 5 5 6
5 5 4 4 4 4 4 3 4 3 2 2 1 2 2 3 3 3 3 3 2 2 2 1 2 1 1 1 0 1 1 1 1 1 1 1 2 2 3 3 3 4 5
5 5 4 4 4 4 4 4 4 3 2 2 2 2 2 2 3 3 3 3 2 2 2 2 2 2 1 1 1 0 1 1 2 2 1 1 1 1 2 2 2 3 4
5 5 5 4 4 4 4 4 4 3 3 3 2 2 1 1 1 2 2 2 2 2 2 2 2 2 1 1 1 1 0 1 1 1 2 2 1 1 1 1 1 2 2
Wind_Direction
69 55 58 42 46 51 58 67 69 72 71 73 74 76 82 88 86 84 82 83 83 84 86 87 88 90 94 101 107 110 113 113 109 107 106 103 101 96 94 94 110 108 87
94 77 72 57 58 57 64 68 71 73 72 77 77 75 82 88 88 87 81 80 82 85 84 80 78 82 88 94 102 114 120 121 116 114 121 122 108 95 95 89 58 64 85
91 86 90 67 62 64 72 76 76 76 74 77 77 74 79 86 87 87 82 78 77 80 79 76 72 72 75 78 91 125 135 128 121 126 160 128 111 96 89 90 82 74 83
85 80 77 69 62 68 76 79 80 79 79 80 78 75 76 83 86 85 82 78 74 73 72 72 67 64 65 60 66 106 129 127 122 157 137 93 94 90 80 82 79 78 77
86 79 79 73 66 68 76 80 83 80 77 79 78 74 74 77 79 78 77 76 72 70 68 70 67 66 65 63 71 95 113 118 124 123 82 82 79 82 77 77 72 68 69
95 86 85 75 70 70 77 81 81 83 79 78 77 75 74 76 78 75 73 74 71 70 69 70 69 67 66 67 77 90 99 105 121 89 79 81 80 78 74 74 70 66 65
99 87 87 75 73 74 78 82 83 82 81 77 74 74 74 78 78 75 72 72 71 69 70 70 69 68 66 68 76 83 85 86 86 86 81 75 72 71 68 66 64 63 65
95 88 88 79 74 78 74 78 85 84 82 78 74 71 70 73 75 72 69 70 70 68 67 68 68 70 68 66 71 76 76 65 89 80 73 72 69 65 62 61 60 57 56
92 89 87 86 95 96 82 72 75 79 80 78 74 72 71 71 73 70 68 66 68 68 66 66 67 68 70 71 72 73 69 49 67 72 71 69 67 62 60 55 52 51 53
93 88 86 80 82 92 93 80 74 74 73 75 73 70 74 81 82 75 72 66 66 66 65 63 64 65 69 72 76 77 74 74 69 69 64 69 66 60 56 54 52 52 59
102 95 91 86 82 83 83 87 86 82 73 76 76 71 72 72 72 77 66 65 65 66 65 62 62 65 71 83 80 78 84 71 72 64 61 58 58 56 54 55 54 55 64
118 105 96 91 84 83 81 82 79 77 74 67 68 67 67 69 65 67 79 71 68 69 74 67 66 77 70 82 90 93 71 71 70 67 64 54 53 54 54 55 56 58 64
123 112 102 99 91 86 86 77 75 76 71 65 64 67 66 69 71 63 69 77 72 67 65 71 69 58 64 69 64 66 58 59 66 65 65 56 53 55 57 59 57 58 61
123 116 110 105 102 91 86 83 82 79 75 70 62 61 62 60 57 54 55 53 53 53 53 55 50 55 58 67 69 71 69 62 65 68 70 60 54 56 57 58 59 57 57
135 129 123 122 111 103 96 90 87 77 71 78 68 59 62 61 61 55 55 51 49 48 49 49 49 53 52 57 59 58 61 61 64 69 74 67 57 56 55 54 54 55 54
145 140 137 137 121 110 102 99 91 85 83 77 70 62 63 64 60 59 57 50 49 45 38 42 46 50 51 53 58 58 56 61 64 69 71 74 68 59 54 52 51 50 48
152 150 145 139 135 122 108 98 93 87 87 78 73 67 67 64 61 62 54 54 47 43 37 43 49 47 53 62 73 68 63 58 61 64 65 61 67 68 59 52 49 46 44
155 155 148 150 149 135 120 112 99 85 82 76 73 65 62 62 60 60 54 44 44 48 43 44 38 46 51 50 62 65 69 65 61 57 61 62 57 58 66 57 50 45 43
160 158 155 155 153 142 127 117 105 95 84 75 72 65 56 57 57 62 54 43 47 49 46 43 44 40 48 45 58 66 66 65 61 57 60 58 60 61 61 68 59 49 43
160 157 157 155 157 145 138 128 115 96 88 79 70 62 59 53 53 57 63 54 52 54 49 43 50 50 46 38 56 70 75 80 69 57 55 59 55 56 54 52 56 56 50
158 160 160 166 164 161 155 155 145 131 112 95 79 68 63 56 52 53 52 56 52 59 50 44 46 71 68 47 78 103 108 94 75 73 56 56 59 51 53 50 47 42 51
168 169 168 171 172 172 165 161 154 138 119 96 83 71 60 54 49 48 53 63 65 75 66 55 43 29 73 2 298 252 193 154 90 78 68 55 49 49 44 43 46 46 38
175 175 178 177 171 173 171 160 150 145 147 121 106 87 62 60 56 48 45 44 48 57 56 46 33 16 320 352 348 322 281 273 115 110 75 58 43 38 45 41 43 46 42
181 178 178 175 169 167 169 169 166 163 149 135 121 111 94 70 62 53 47 42 45 43 50 33 20 352 306 302 5 350 328 330 266 210 160 57 39 39 32 33 36 43 39
180 178 178 177 174 174 175 168 178 171 156 142 137 130 111 80 63 55 45 46 45 39 37 29 9 354 326 317 322 325 336 272 278 264 255 292 352 31 24 22 26 34 32
179 178 179 180 180 181 185 181 182 176 166 158 165 154 135 114 82 62 46 51 47 40 39 31 22 8 359 0 323 313 286 264 293 272 272 272 290 333 350 18 10 20 23
Height
1523 1522 1521 1521 1521 1520 1520 1519 1519 1519 1518 1517 1517 1516 1516 1516 1516 1515 1515 1515 1515 1515 1514 1514 1514 1514 1514 1514 1514 1514 1515 1515 1516 1516 1517 1517 1518 1518 1518 1518 1518 1519 1518
1523 1523 1522 1522 1522 1521 1521 1520 1520 1520 1519 1519 1518 1518 1517 1517 1517 1517 1517 1516 1516 1516 1516 1515 1515 1514 1513 1513 1512 1512 1513 1515 1516 1517 1517 1518 1518 1518 1518 1518 1519 1519 1518
1524 1524 1523 1522 1522 1522 1522 1521 1521 1521 1520 1520 1519 1519 1519 1518 1518 1518 1518 1517 1517 1517 1517 1516 1515 1515 1513 1512 1510 1509 1511 1513 1515 1517 1518 1519 1519 1519 1519 1519 1519 1519 1519
1525 1525 1524 1523 1523 1523 1523 1522 1522 1522 1522 1521 1521 1520 1520 1520 1520 1519 1519 1519 1518 1518 1518 1517 1516 1515 1513 1509 1504 1503 1507 1511 1515 1517 1519 1520 1521 1520 1520 1520 1520 1520 1520
1525 1525 1524 1524 1524 1524 1523 1523 1523 1523 1523 1522 1522 1522 1521 1521 1521 1521 1520 1520 1520 1519 1519 1518 1517 1516 1513 1509 1503 1502 1506 1511 1515 1518 1520 1520 1521 1520 1520 1521 1521 1521 1521
1526 1526 1525 1524 1524 1524 1524 1524 1524 1524 1524 1523 1523 1523 1523 1522 1522 1522 1522 1521 1521 1520 1520 1519 1518 1517 1515 1511 1508 1507 1510 1514 1517 1519 1520 1521 1522 1521 1521 1522 1521 1522 1521
1527 1527 1526 1524 1524 1524 1525 1525 1525 1525 1525 1525 1525 1524 1524 1524 1524 1523 1523 1523 1522 1522 1521 1520 1520 1519 1517 1515 1514 1513 1515 1517 1520 1521 1522 1522 1522 1522 1522 1522 1522 1522 1522
1528 1528 1526 1523 1521 1523 1525 1526 1526 1526 1526 1526 1526 1526 1525 1525 1525 1525 1524 1524 1523 1523 1523 1522 1521 1520 1520 1518 1517 1518 1518 1520 1522 1523 1523 1523 1523 1523 1523 1523 1523 1523 1522
1529 1529 1528 1525 1522 1524 1526 1527 1528 1528 1527 1527 1527 1527 1527 1527 1527 1526 1526 1525 1525 1524 1524 1523 1523 1522 1522 1521 1520 1520 1520 1521 1524 1524 1525 1524 1524 1524 1524 1523 1523 1523 1523
1530 1530 1530 1528 1527 1528 1529 1529 1529 1529 1529 1529 1529 1529 1529 1529 1528 1528 1528 1527 1526 1526 1525 1525 1524 1524 1523 1523 1523 1523 1523 1524 1525 1526 1526 1526 1525 1525 1524 1524 1523 1523 1523
1532 1532 1532 1531 1531 1531 1531 1531 1531 1531 1531 1531 1531 1530 1531 1531 1531 1530 1530 1529 1528 1528 1527 1526 1526 1526 1525 1525 1525 1525 1526 1527 1527 1527 1527 1526 1526 1526 1525 1524 1524 1523 1523
1533 1533 1533 1534 1533 1533 1533 1533 1534 1534 1533 1533 1533 1533 1533 1533 1532 1532 1531 1531 1530 1529 1529 1528 1528 1528 1528 1528 1527 1527 1528 1529 1529 1529 1528 1527 1527 1527 1526 1525 1525 1524 1523
1534 1534 1534 1535 1535 1535 1535 1535 1535 1535 1535 1535 1535 1535 1535 1535 1534 1534 1534 1533 1532 1532 1531 1530 1530 1530 1530 1529 1529 1530 1530 1530 1530 1530 1529 1528 1528 1527 1526 1526 1525 1524 1524
1535 1535 1535 1536 1536 1536 1536 1536 1537 1537 1537 1537 1537 1537 1537 1536 1536 1536 1535 1534 1534 1533 1533 1532 1532 1532 1532 1531 1532 1532 1531 1531 1531 1531 1530 1529 1529 1528 1528 1527 1526 1525 1525
1535 1535 1536 1536 1537 1537 1537 1537 1538 1538 1538 1538 1538 1538 1538 1538 1537 1537 1536 1535 1535 1534 1534 1533 1533 1533 1533 1533 1532 1533 1532 1532 1532 1532 1531 1530 1530 1529 1529 1528 1527 1526 1526
1535 1536 1536 1537 1538 1538 1538 1539 1539 1539 1538 1539 1539 1539 1539 1539 1539 1538 1537 1536 1536 1535 1535 1534 1534 1533 1533 1533 1533 1533 1533 1533 1533 1533 1532 1532 1531 1530 1530 1529 1528 1527 1527
1536 1536 1537 1537 1538 1539 1539 1539 1539 1539 1539 1539 1539 1540 1540 1539 1539 1538 1538 1537 1537 1536 1536 1535 1535 1534 1534 1534 1534 1534 1533 1533 1534 1533 1533 1533 1532 1531 1530 1530 1529 1528 1527
1535 1536 1537 1537 1538 1539 1539 1539 1539 1540 1540 1540 1540 1540 1540 1540 1539 1539 1538 1538 1537 1537 1536 1535 1535 1535 1534 1534 1534 1534 1534 1534 1534 1534 1534 1533 1533 1532 1531 1530 1530 1529 1528
1535 1536 1537 1537 1538 1538 1539 1539 1539 1540 1540 1540 1540 1540 1540 1540 1540 1539 1538 1538 1538 1537 1536 1536 1535 1535 1535 1534 1534 1534 1534 1534 1534 1534 1534 1534 1534 1533 1532 1531 1530 1530 1529
1535 1536 1536 1537 1538 1538 1539 1539 1539 1540 1540 1540 1540 1540 1540 1540 1540 1539 1538 1538 1538 1537 1537 1536 1536 1535 1535 1535 1535 1535 1534 1534 1535 1534 1534 1534 1534 1533 1533 1532 1531 1530 1529
1534 1535 1536 1536 1537 1538 1538 1539 1539 1540 1540 1540 1540 1540 1540 1540 1539 1539 1538 1538 1537 1537 1536 1536 1536 1535 1535 1535 1535 1535 1535 1535 1535 1534 1534 1534 1534 1533 1533 1532 1531 1530 1529
1533 1534 1535 1536 1537 1537 1538 1539 1539 1539 1539 1539 1539 1539 1539 1539 1539 1539 1538 1538 1537 1536 1536 1535 1535 1535 1534 1534 1535 1535 1535 1537 1535 1535 1534 1534 1534 1533 1533 1532 1531 1530 1529
1531 1532 1533 1534 1535 1536 1537 1538 1538 1538 1539 1539 1539 1539 1539 1539 1538 1538 1538 1537 1536 1536 1536 1535 1534 1534 1534 1534 1534 1535 1535 1534 1535 1535 1534 1534 1533 1533 1532 1532 1531 1530 1529
1530 1531 1532 1533 1534 1535 1535 1536 1537 1537 1538 1538 1538 1538 1538 1538 1538 1537 1537 1537 1536 1536 1535 1534 1534 1533 1533 1533 1533 1533 1534 1534 1535 1534 1535 1534 1533 1532 1532 1531 1531 1530 1528
1528 1529 1531 1532 1533 1533 1534 1535 1536 1537 1537 1537 1537 1537 1537 1537 1537 1536 1536 1536 1536 1535 1534 1533 1533 1532 1532 1532 1532 1532 1532 1533 1533 1534 1533 1533 1533 1532 1531 1531 1530 1529 1528
1526 1527 1529 1530 1531 1531 1532 1533 1534 1535 1535 1536 1536 1536 1536 1536 1536 1536 1535 1535 1535 1534 1533 1532 1532 1531 1531 1531 1531 1531 1531 1531 1532 1532 1532 1532 1531 1531 1530 1530 1529 1528 1527